Regional Weather Roundup
Issued by NWS San Angelo, TX

Home | Current Version | Previous Version | Text Only | Print | Product List | Glossary On
Versions: 1 2 3 4 5 6 7 8 9 10 11 12 13 14 15 16 17 18 19 20 21 22 23 24 25 26 27 28 29 30 31 32 33 34 35 36 37 38 39 40 41 42 43 44 45 46 47 48 49 50
000
ASUS44 KSJT 291710
RWRSJT
WEST CENTRAL TEXAS REGIONAL WEATHER ROUNDUP
NATIONAL WEATHER SERVICE SAN ANGELO TX
1200 PM CDT SUN MAR 29 2015

NOTE: "FAIR" INDICATES FEW OR NO CLOUDS BELOW 12,000 FEET WITH NO
SIGNIFICANT WEATHER AND/OR OBSTRUCTIONS TO VISIBILITY.

TXZ049-054-064>066-071>073-076>078-098-099-113-114-127-128-139-140-
154-155-168>170-291800
...LOCATIONS ACROSS WEST CENTRAL TEXAS...

CITY           SKY/WX    TMP DP  RH WIND       PRES   REMARKS
SAN ANGELO     SUNNY     79  49  34 SW17G23   30.05R
ABILENE        SUNNY     77  49  37 SW13      30.02R
DYESS AFB      SUNNY     81  52  36 SW12      29.99R
JUNCTION       SUNNY     80  51  36 S10       30.07F
SWEETWATER     SUNNY     80  41  25 SW10      30.05F
BROWNWOOD      SUNNY     77  52  41 S15       30.04F
COLEMAN        SUNNY     77  53  42 S14       30.03F
SONORA         SUNNY     75  52  43 S13       30.13S HAZE
OZONA          FAIR      73  48  40 S9G16     30.12S
BRADY          SUNNY     79  48  34 S21       30.05S
$$

TEXAS PANHANDLE/OKLAHOMA PANHANDLE

CITY           SKY/WX    TMP DP  RH WIND       PRES   REMARKS
AMARILLO       SUNNY     69  35  28 N24G38    30.17R
BORGER         SUNNY     71  32  23 N29G40    30.17R
CANADIAN       SUNNY     72  33  24 NE22G40   30.11R
DALHART        SUNNY     65  35  33 N30G38    30.24R
DUMAS          SUNNY     65  33  30 N23G32    30.20R
GUYMON         NOT AVBL
HEREFORD       SUNNY     73  35  24 N35G40    30.17R
PAMPA          MOSUNNY   68  31  25 N28G40    30.14R
PERRYTON       SUNNY     68  31  25 N36G41    30.15R
$$

SOUTHERN PANHANDLE/SOUTH PLAINS/ROLLING PLAINS

CITY           SKY/WX    TMP DP  RH WIND       PRES   REMARKS
LUBBOCK        SUNNY     80  30  16 N25G40    30.06S
SNYDER         SUNNY     75  44  32 SW13      30.03F
CHILDRESS      SUNNY     78  38  23 N25G35    29.99R
SEMINOLE       SUNNY     83  27  12 N16G26    30.10R
$$

PERMIAN BASIN

CITY           SKY/WX    TMP DP  RH WIND       PRES   REMARKS
MIDLAND        SUNNY     80  41  24 NW6       30.07R
ODESSA         SUNNY     82  34  17 NW8       30.08S
WINK           SUNNY     85  26  11 NW12      30.07F
$$

FAR WEST/SOUTHWEST MOUNTAINS/TRANS PECOS

CITY           SKY/WX    TMP DP  RH WIND       PRES   REMARKS
ALPINE         SUNNY     83  14   7 N12       30.25R
DRYDEN           N/A     75  45  34 CALM      30.08F
EL PASO        MOSUNNY   73  15  11 S7        30.20S
FORT STOCKTON  SUNNY     80  22  11 W13       30.13S
GUADALUPE PASS SUNNY     71  17  12 SW13      30.27S
MARFA          SUNNY     81  19  10 NW17G24   30.25S
PECOS          SUNNY     79  33  19 W9        30.10F
$$

DALLAS/FORT WORTH METROPLEX

CITY           SKY/WX    TMP DP  RH WIND       PRES   REMARKS
DFW AIRPORT    SUNNY     73  52  47 S18       30.02F
FTW MEACHAM    SUNNY     74  53  48 S16       30.02F
DAL-EXECUTIVE  SUNNY     73  54  51 S12G23    30.03F
GRAND PRAIRIE  SUNNY     72  54  53 S14       30.05F
ADDISON        SUNNY     73  48  40 S18       30.02
MESQUITE       SUNNY     72  54  53 S20       30.06F
LANCASTER      SUNNY     71  55  56 S12G22    30.07F
$$

NORTH CENTRAL TEXAS

CITY           SKY/WX    TMP DP  RH WIND       PRES   REMARKS
SHRMAN/DENISON SUNNY     73  56  55 S17       30.02F
GAINESVILLE    SUNNY     71  52  51 S17G23    30.02F
BRIDGEPORT     SUNNY     76  53  44 S10G16    30.02S
DENTON         SUNNY     73  52  47 S15       30.01F
WAXAHACHIE     SUNNY     71  58  64 S15       30.07F
GRANBURY         N/A     78  52  40 S14G20    30.04S
$$

WESTERN NORTH TEXAS

CITY           SKY/WX    TMP DP  RH WIND       PRES   REMARKS
WICHITA FALLS  SUNNY     75  49  39 S12       29.95F
VERNON         SUNNY     76  36  23 W9        29.97R
BRECKENRIDGE   SUNNY     82  46  28 SW17G24   29.98S
COMANCHE       SUNNY     78  51  39 SW21G28   30.03F
$$

CENTRAL AND SOUTH CENTRAL TEXAS

CITY           SKY/WX    TMP DP  RH WIND       PRES   REMARKS
AUSTIN/BERGSTM SUNNY     74  58  57 S15G30    30.11F
WACO           SUNNY     73  59  61 S18       30.08S
HILLSBORO      SUNNY     72  58  62 S18       30.08S
TEMPLE         SUNNY     73  55  53 S23       30.08R
KILLEEN-GRAY   SUNNY     76  56  48 S17G23    30.07S
FORT HOOD      SUNNY     77  56  47 S16G23    30.07S
GEORGETOWN     SUNNY     75  55  50 S23G30    30.09S
LAGO VISTA     FAIR      75  56  50 SW15G21   30.11S
SAN MARCOS     SUNNY     73  57  56 S21       30.13F
NEW BRAUNFELS  SUNNY     76  60  57 S14G23    30.12F
RANDOLPH AFB   SUNNY     73  59  62 S15       30.13F
SAN ANTONIO    SUNNY     73  59  61 S10       30.14S
STINSON        SUNNY     73  59  61 S9        30.12F
PLEASANTON     NOT AVBL
LA GRANGE      SUNNY     75  63  67 SW15      30.13F
GIDDINGS       SUNNY     72  60  64 S13G20    30.17F
$$

EAST TEXAS

CITY           SKY/WX    TMP DP  RH WIND       PRES   REMARKS
PARIS          NOT AVBL
CLARKSVILLE    NOT AVBL
TYLER          SUNNY     74  53  48 S17G24    30.09F
LONGVIEW       SUNNY     75  55  49 S15G28    30.09F
PALESTINE      SUNNY     75  57  53 S18       30.13F
NACOGDOCHES    SUNNY     73  57  56 S17G23    30.15F
$$

TEXAS HILL COUNTRY AND EDWARDS PLATEAU

CITY           SKY/WX    TMP DP  RH WIND       PRES   REMARKS
LLANO          SUNNY     79  55  44 S14       30.10F
HORSESHOE BAY  FAIR      78  55  46 SW8G21    30.10S
KERRVILLE      SUNNY     72  58  60 S15       30.13S
FREDERICKSBRG  SUNNY     72  54  53 SW17      30.11S
ROCKSPRINGS    NOT AVBL
HONDO          SUNNY     72  58  61 SE12      30.14F
UVALDE         SUNNY     72  58  60 SE10      30.12S
DEL RIO        SUNNY     71  54  54 SE8       30.08F
$$

SOUTHEAST TEXAS

CITY           SKY/WX    TMP DP  RH WIND       PRES   REMARKS
COLLEGE STN    SUNNY     74  57  55 S16G24    30.14F
CALDWELL       SUNNY     73  63  68 S15       30.16S
CROCKETT       SUNNY     77  61  57 S14G22    30.17F
BRENHAM        SUNNY     76  58  52 S15G23    30.15F
HUNTSVILLE     SUNNY     75  59  57 S14G25    30.16F
CONROE         PTSUNNY   72  59  63 SW13      30.18F
HOUSTON BUSH   MOSUNNY   75  61  61 S14       30.18F
HOUSTON HOBBY  MOSUNNY   75  62  64 S13G22    30.18F
PERLAND        CLOUDY    77  61  57 S20G25    30.20S
WHARTON        SUNNY     76  61  60 S24G30    30.18F
$$

THE UPPER TEXAS COAST

CITY           SKY/WX    TMP DP  RH WIND       PRES   REMARKS
ORANGE         MOSUNNY   75  61  60 S10G20    30.24S
PORT ARTHUR    PTSUNNY   76  62  62 S15G23    30.21S
GALVESTON      CLOUDY    72  66  81 S15       30.22S
ANGLETON       PTSUNNY   74  63  68 S20G31    30.20S
BAY CITY       PTSUNNY   76  66  70 S17       30.19F
$$

TEXAS COASTAL BEND, RIO GRANDE PLAINS DEEP SOUTH TEXAS

CITY           SKY/WX    TMP DP  RH WIND       PRES   REMARKS
VICTORIA       SUNNY     77  61  57 S24G31    30.16S
BEEVILLE       FAIR      75  62  62 S17G26    30.14S
ROCKPORT       SUNNY     76  63  64 S15G25    30.16F
PORT ARANSAS   SUNNY     72  65  78 S13G18    30.17S
PORT LAVACA    SUNNY     76  62  62 S28G35    30.17F
CORPUS CHRISTI MOSUNNY   76  64  66 S24G32    30.14S
KINGSVILLE NAS SUNNY     79  63  57 S20       30.13S
COTULLA        SUNNY     76  58  53 S9        30.11S
LAREDO         SUNNY     78  57  48 SE13G18   30.11F
BROWNSVILLE    SUNNY     79  63  57 S25G33    30.17S
PORT ISABEL    SUNNY     78  63  59 S25G31    30.15F
HEBBRONVILLE   NOT AVBL
MCALLEN        SUNNY     80  59  48 S22G35    30.14S
WESLACO        SUNNY     78  61  55 S21G26    30.14S
FALFURRIAS     SUNNY     78  61  56 SE20      30.12F
EDINBURG       SUNNY     80  61  52 SE18G26   30.14S
$$


USA.gov is the U.S. government's official web portal to all federal, state and local government web resources and services.